Mount Pleasant, IA

9:16 AM CST on February 21, 2017 (GMT -0600)
Mount Pleasant Municipal

Weather History for KMPZ - March, 2014

Change the Weather History Date:

Monday, March 3, 2014

  Actual Average Record
Temperature  
Mean Temperature 5 °F -  
Max Temperature 18 °F 44 °F 79 °F (1983)
Min Temperature -8 °F 27 °F -8 °F (2014)
Degree Days  
Heating Degree Days 60    
Moisture  
Dew Point -9 °F    
Average Humidity 55    
Maximum Humidity 68    
Minimum Humidity 32    
Precipitation  
Precipitation 0.00 in - - ()
Sea Level Pressure  
Sea Level Pressure 30.46 in    
Wind  
Wind Speed 6 mph (NNE)    
Max Wind Speed 12 mph    
Max Gust Speed -    
Visibility 10 miles    
Events      
Averages and records for this station are not official NWS values.
T = Trace of Precipitation, MM = Missing Value Source: NWS Daily Summary

Daily Weather History Graph

Daily Weather History Graph

Search for Another Location

Airport or City:

Trip Planner

Search our weather history database for the weather conditions in past years. The results will help you decide how hot, cold, wet, or windy it might be!

Date:

Astronomy

Mar. 03, 2014 Rise Set
Actual Time 6:37 AM CST 5:59 PM CST
Civil Twilight 6:09 AM CST 6:26 PM CST
Nautical Twilight 5:37 AM CST 6:58 PM CST
Astronomical Twilight 5:05 AM CST 7:30 PM CST
Moon 7:44 AM CST (3/3) 9:04 PM CST (3/3)
Length of Visible Light 12h 17m
Length of Day
11h 22m
Waxing Crescent, 8% of the Moon is Illuminated
Mar 3
Waxing Crescent
Mar 8
First Quarter
Mar 16
Full
Mar 23
Last Quarter
Mar 30
New

Hourly Weather History & Observations

Time (CST) Temp. Windchill Dew Point Humidity Pressure Visibility Wind Dir Wind Speed Gust Speed Precip Events Conditions
12:15 AM -4.4 °F -20.6 °F -15.3 °F 59% 30.51 in 10.0 mi NNW 9.2 mph - N/A   Clear
12:35 AM -4.9 °F -21.3 °F -15.3 °F 61% 30.51 in 10.0 mi NNW 9.2 mph - N/A   Clear
12:55 AM -4.7 °F -19.9 °F -15.3 °F 60% 30.51 in 10.0 mi NNW 8.1 mph - N/A   Clear
1:15 AM -4.9 °F -21.3 °F -15.3 °F 61% 30.51 in 10.0 mi NNW 9.2 mph - N/A   Clear
1:35 AM -5.3 °F -22.8 °F -15.5 °F 61% 30.51 in 10.0 mi NNW 10.4 mph - N/A   Clear
1:55 AM -5.6 °F -23.2 °F -15.3 °F 63% 30.50 in 10.0 mi NNW 10.4 mph - N/A   Clear
2:15 AM -5.8 °F -24.4 °F -15.0 °F 65% 30.50 in 10.0 mi NNW 11.5 mph - N/A   Clear
2:35 AM -5.8 °F -22.4 °F -15.2 °F 64% 30.49 in 10.0 mi NNW 9.2 mph - N/A   Clear
2:55 AM -5.8 °F -24.4 °F -15.3 °F 63% 30.48 in 10.0 mi NNW 11.5 mph - N/A   Clear
3:15 AM -6.0 °F -24.6 °F -15.2 °F 65% 30.48 in 10.0 mi NNW 11.5 mph - N/A   Clear
3:35 AM -6.0 °F -23.6 °F -15.3 °F 64% 30.48 in 10.0 mi NNW 10.4 mph - N/A   Clear
3:55 AM -6.2 °F -23.9 °F -15.3 °F 64% 30.49 in 10.0 mi NNW 10.4 mph - N/A   Clear
4:15 AM -6.7 °F -22.3 °F -15.7 °F 65% 30.50 in 10.0 mi NNW 8.1 mph - N/A   Clear
4:35 AM -6.7 °F -22.3 °F -15.7 °F 65% 30.51 in 10.0 mi North 8.1 mph - N/A   Clear
4:55 AM -7.2 °F -20.1 °F -15.9 °F 66% 30.51 in 10.0 mi NNW 5.8 mph - N/A   Clear
5:15 AM -7.1 °F -19.9 °F -15.7 °F 66% 30.51 in 10.0 mi NNW 5.8 mph - N/A   Clear
5:35 AM -8.0 °F -23.9 °F -16.1 °F 68% 30.51 in 10.0 mi NNW 8.1 mph - N/A   Clear
5:55 AM -6.9 °F -15.7 °F -15.7 °F 66% 30.52 in 10.0 mi NW 3.5 mph - N/A   Clear
6:15 AM -6.9 °F -15.7 °F -15.7 °F 66% 30.52 in 10.0 mi NW 3.5 mph - N/A   Clear
6:35 AM -7.2 °F -16.1 °F -15.7 °F 67% 30.52 in 10.0 mi NW 3.5 mph - N/A   Clear
6:55 AM -6.9 °F -15.7 °F -15.5 °F 66% 30.52 in 10.0 mi NW 3.5 mph - N/A   Clear
7:15 AM -7.8 °F - -16.2 °F 67% 30.52 in 10.0 mi Calm Calm - N/A   Clear
7:35 AM -7.2 °F -16.1 °F -15.2 °F 68% 30.52 in 10.0 mi NW 3.5 mph - N/A   Clear
7:55 AM -4.5 °F -13.0 °F -14.8 °F 61% 30.52 in 10.0 mi NNW 3.5 mph - N/A   Clear
8:15 AM -3.8 °F -14.4 °F -14.1 °F 61% 30.53 in 10.0 mi NNW 4.6 mph - N/A   Clear
8:35 AM -3.3 °F -15.4 °F -13.9 °F 60% 30.53 in 10.0 mi NNW 5.8 mph - N/A   Clear
8:55 AM -2.0 °F -12.2 °F -13.2 °F 59% 30.53 in 10.0 mi NNW 4.6 mph - N/A   Clear
9:15 AM -0.2 °F -11.8 °F -13.2 °F 54% 30.53 in 10.0 mi North 5.8 mph - N/A   Clear
9:35 AM 0.3 °F -9.5 °F -13.0 °F 54% 30.54 in 10.0 mi North 4.6 mph - N/A   Clear
9:55 AM 1.0 °F -6.7 °F -11.7 °F 55% 30.54 in 10.0 mi NNE 3.5 mph - N/A   Clear
10:15 AM 2.1 °F - -11.9 °F 52% 30.54 in 10.0 mi Calm Calm - N/A   Clear
10:35 AM 2.8 °F -4.6 °F -11.9 °F 50% 30.54 in 10.0 mi NE 3.5 mph - N/A   Clear
10:55 AM 3.6 °F -3.8 °F -10.5 °F 52% 30.54 in 10.0 mi NNE 3.5 mph - N/A   Clear
11:15 AM 4.1 °F - -10.1 °F 52% 30.54 in 10.0 mi Calm Calm - N/A   Clear
11:35 AM 5.0 °F - -9.0 °F 52% 30.53 in 10.0 mi Calm Calm - N/A   Clear
11:55 AM 5.9 °F - -8.7 °F 51% 30.52 in 10.0 mi Calm Calm - N/A   Clear
12:15 PM 8.1 °F 1.4 °F -6.3 °F 52% 30.51 in 10.0 mi ENE 3.5 mph - N/A   Clear
12:35 PM 8.6 °F - -6.0 °F 52% 30.51 in 10.0 mi Calm Calm - N/A   Clear
12:55 PM 10.8 °F 4.5 °F -6.2 °F 47% 30.49 in 10.0 mi ENE 3.5 mph - N/A   Clear
1:15 PM 12.2 °F 6.1 °F -3.6 °F 49% 30.49 in 10.0 mi NE 3.5 mph - N/A   Clear
1:30 PM 13.3 °F 7.3 °F -4.2 °F 46% 30.48 in 10.0 mi ENE 3.5 mph - N/A   Clear
1:55 PM 14.4 °F - -4.9 °F 42% 30.48 in 10.0 mi Calm Calm - N/A   Clear
2:15 PM 16.7 °F - -6.2 °F 36% 30.47 in 10.0 mi Calm Calm - N/A   Clear
2:35 PM 18.1 °F - -7.2 °F 32% 30.46 in 10.0 mi Calm Calm - N/A   Clear
2:55 PM 17.1 °F 11.7 °F -7.6 °F 33% 30.45 in 10.0 mi SSW 3.5 mph - N/A   Clear
3:15 PM 17.1 °F 8.7 °F -8.3 °F 32% 30.45 in 10.0 mi SSW 5.8 mph - N/A   Clear
3:35 PM 17.4 °F 9.1 °F -8.0 °F 32% 30.44 in 10.0 mi South 5.8 mph - N/A   Clear
3:55 PM 16.7 °F 8.3 °F -8.5 °F 32% 30.44 in 10.0 mi South 5.8 mph - N/A   Clear
4:15 PM 16.7 °F 7.2 °F -7.4 °F 34% 30.44 in 10.0 mi South 6.9 mph - N/A   Clear
4:35 PM 16.5 °F 8.1 °F -8.3 °F 33% 30.43 in 10.0 mi SSE 5.8 mph - N/A   Clear
4:55 PM 16.3 °F 10.8 °F -6.0 °F 37% 30.43 in 10.0 mi South 3.5 mph - N/A   Clear
5:15 PM 14.9 °F - -1.1 °F 49% 30.43 in 10.0 mi Calm Calm - N/A   Clear
5:35 PM 14.0 °F 6.5 °F -0.8 °F 52% 30.41 in 10.0 mi East 4.6 mph - N/A   Clear
5:55 PM 12.0 °F 1.5 °F 1.0 °F 61% 30.40 in 10.0 mi ENE 6.9 mph - N/A   Clear
6:10 PM 11.3 °F 1.9 °F 1.4 °F 64% 30.39 in 10.0 mi East 5.8 mph - N/A   Clear
6:35 PM 11.1 °F 3.1 °F 1.4 °F 65% 30.38 in 10.0 mi East 4.6 mph - N/A   Clear
6:55 PM 10.8 °F 2.7 °F 1.4 °F 66% 30.38 in 10.0 mi ESE 4.6 mph - N/A   Clear
7:15 PM 11.1 °F 0.4 °F -1.3 °F 57% 30.37 in 10.0 mi SE 6.9 mph - N/A   Clear
7:35 PM 10.9 °F 1.4 °F -2.9 °F 54% 30.37 in 10.0 mi SE 5.8 mph - N/A   Clear
7:55 PM 9.7 °F -0.1 °F -4.0 °F 54% 30.37 in 10.0 mi SE 5.8 mph - N/A   Clear
8:15 PM 9.3 °F -0.5 °F -4.2 °F 54% 30.36 in 10.0 mi SE 5.8 mph - N/A   Clear
8:35 PM 8.4 °F -2.8 °F -4.0 °F 57% 30.35 in 10.0 mi SE 6.9 mph - N/A   Clear
8:55 PM 9.1 °F -4.0 °F -3.1 °F 58% 30.34 in 10.0 mi SSE 9.2 mph - N/A   Clear
9:15 PM 10.2 °F -4.3 °F -2.9 °F 55% 30.33 in 10.0 mi SE 11.5 mph - N/A   Scattered Clouds
9:35 PM 11.3 °F -1.3 °F -2.2 °F 55% 30.33 in 10.0 mi SSE 9.2 mph - N/A   Mostly Cloudy
9:55 PM 11.5 °F 0.9 °F -2.2 °F 54% 30.33 in 10.0 mi SSE 6.9 mph - N/A   Mostly Cloudy
10:15 PM 11.3 °F 5.1 °F -2.6 °F 54% 30.34 in 10.0 mi South 3.5 mph - N/A   Scattered Clouds
10:35 PM 10.8 °F - -2.9 °F 54% 30.35 in 10.0 mi Calm Calm - N/A   Clear
10:55 PM 11.3 °F - -2.0 °F 55% 30.35 in 10.0 mi Calm Calm - N/A   Mostly Cloudy
11:15 PM 11.1 °F - -0.4 °F 60% 30.34 in 10.0 mi Calm Calm - N/A   Overcast
11:35 PM 11.8 °F 5.7 °F 0.5 °F 60% 30.33 in 10.0 mi NE 3.5 mph - N/A   Overcast
11:55 PM 11.8 °F 5.7 °F 0.7 °F 61% 30.32 in 10.0 mi ENE 3.5 mph - N/A   Overcast